Coral Harbour, Nunavut

9:17 AM EST on August 16, 2017 (GMT -0500)
Coral Harbour

Weather History for CYZS - October, 2012

Change the Weather History Date:

Monday, October 15, 2012

  Actual Average Record
Temperature  
Mean Temperature 22 °F -  
Max Temperature 26 °F 17 °F 35 °F (2001)
Min Temperature 15 °F 2 °F 4 °F (2016)
Degree Days  
Heating Degree Days 44    
Moisture  
Dew Point 20 °F    
Average Humidity 89    
Maximum Humidity 100    
Minimum Humidity 74    
Precipitation  
Precipitation 0.04 in 0.04 in - ()
Sea Level Pressure  
Sea Level Pressure 29.86 in    
Wind  
Wind Speed 1 mph ()    
Max Wind Speed 12 mph    
Max Gust Speed -    
Visibility 11.9 miles    
Events Snow    
Averages and records for this station are not official NWS values.
T = Trace of Precipitation, MM = Missing Value Source: Averaged Metar Reports

Daily Weather History Graph

Daily Weather History Graph

Search for Another Location

Airport or City:

Trip Planner

Search our weather history database for the weather conditions in past years. The results will help you decide how hot, cold, wet, or windy it might be!

Date:

Astronomy

Oct. 15, 2012 Rise Set
Actual Time 8:25 AM EDT 6:11 PM EDT
Civil Twilight 7:36 AM EDT 7:00 PM EDT
Nautical Twilight 6:41 AM EDT 7:55 PM EDT
Astronomical Twilight 5:44 AM EDT 8:51 PM EDT
Moon 8:57 AM EDT (10/15) 5:39 PM EDT (10/15)
Length of Visible Light 11h 23m
Length of Day
9h 45m
New Moon, 0% of the Moon is Illuminated
Oct 15
New Moon
Oct 21
First Quarter
Oct 29
Full
Nov 6
Last Quarter
Nov 13
New

Hourly Weather History & Observations

Time (EDT) Temp. Windchill Dew Point Humidity Pressure Visibility Wind Dir Wind Speed Gust Speed Precip Events Conditions
12:00 AM 19.4 °F 12.8 °F 17.6 °F 93% 29.82 in 15.0 mi SW 4.6 mph - N/A Snow Light Snow
1:00 AM 21.2 °F 16.4 °F 19.4 °F 93% 29.83 in 15.0 mi WSW 3.5 mph - N/A Snow Light Snow
2:00 AM 22 °F - 20 °F 88% 29.83 in 15 mi Calm Calm - - Snow Light Snow
3:00 AM 21.2 °F - 19.4 °F 93% 29.83 in 12.0 mi Calm Calm - N/A Snow Light Snow
4:00 AM 21.2 °F - 19.4 °F 93% 29.83 in 15.0 mi Calm Calm - N/A Snow Light Snow
5:00 AM 23.0 °F - 21.2 °F 93% 29.83 in 15.0 mi Calm Calm - N/A Snow Light Snow
6:00 AM 23.0 °F - 21.2 °F 93% 29.84 in 12.0 mi Calm Calm - N/A Snow Light Snow
7:00 AM 23.0 °F - 21.2 °F 93% 29.85 in 8.0 mi Calm Calm - N/A Snow Light Snow
7:33 AM - - - N/A% - 2.0 mi Calm Calm - N/A   Unknown
8:00 AM 23 °F - 21 °F 91% 29.86 in 2 mi Calm Calm - - Snow Light Snow
8:00 AM 23.0 °F - 21.2 °F 93% 29.86 in 2.0 mi Calm Calm - N/A Snow Light Snow
8:47 AM - - - N/A% - 3.0 mi Calm Calm - N/A   Unknown
9:00 AM 23.0 °F - 23.0 °F 100% 29.86 in 3.0 mi Calm Calm - N/A Snow Light Snow
10:00 AM 23.0 °F - 21.2 °F 93% 29.86 in 12.0 mi Calm Calm - N/A Snow Light Snow
11:00 AM 23.0 °F - 21.2 °F 93% 29.86 in 12.0 mi Calm Calm - N/A Snow Light Snow
11:19 AM - - - N/A% - 15.0 mi Calm Calm - N/A   Overcast
12:00 PM 24.8 °F 17.9 °F 23.0 °F 93% 29.87 in 15.0 mi East 5.8 mph - N/A   Overcast
1:00 PM 24.8 °F - 23.0 °F 93% 29.87 in 15.0 mi East 2.3 mph - N/A   Mostly Cloudy
2:00 PM 26 °F - 23 °F 82% 29.87 in 15 mi Calm Calm - -   Partly Cloudy
2:00 PM 26.6 °F - 23.0 °F 86% 29.87 in 15.0 mi Calm Calm - N/A   Mostly Cloudy
3:00 PM 26.6 °F - 21.2 °F 80% 29.88 in 15.0 mi East 2.3 mph - N/A   Mostly Cloudy
4:00 PM 26.6 °F - 21.2 °F 80% 29.88 in 15.0 mi Calm Calm - N/A   Mostly Cloudy
5:00 PM 26.6 °F - 21.2 °F 80% 29.88 in 15.0 mi Calm Calm - N/A   Mostly Cloudy
6:00 PM 24.8 °F - 19.4 °F 80% 29.89 in 15.0 mi Calm Calm - N/A   Overcast
7:00 PM 24.8 °F - 19.4 °F 80% 29.89 in 15.0 mi Calm Calm - N/A   Overcast
8:00 PM 24 °F - 19 °F 74% 29.90 in 15 mi Calm Calm - -   Overcast
8:00 PM 24.8 °F - 19.4 °F 80% 29.90 in 15.0 mi Calm Calm - N/A   Overcast
9:00 PM 21.2 °F 14.9 °F 19.4 °F 93% 29.88 in 15.0 mi North 4.6 mph - N/A   Mostly Cloudy
10:00 PM 19.4 °F 7.9 °F 19.4 °F 100% 29.88 in 8.0 mi NNE 10.4 mph - N/A   Mostly Cloudy
11:00 PM 15.8 °F 2.7 °F 14.0 °F 93% 29.88 in 12.0 mi North 11.5 mph - N/A   Mostly Cloudy